Temperature
18 18 18 18 18 18 18 18 17 17 18 18 18 18 18 18 18 18 18 18 18 18 18 18 18 18 18 18 18 18 18 18 18 18 18 18 18 18 18 18 18 18 18
18 18 18 18 18 18 18 18 17 17 17 17 17 18 18 18 18 18 18 18 18 18 18 18 18 18 18 18 18 18 18 18 18 18 18 18 18 18 18 18 18 18 18
18 18 18 18 18 18 18 18 17 17 17 17 17 17 18 18 18 18 18 18 17 18 18 18 18 18 18 18 18 18 18 18 18 18 18 18 18 18 18 18 18 18 18
18 18 18 18 18 18 17 17 17 17 17 17 17 17 17 17 17 17 17 17 17 17 17 17 17 18 18 18 18 18 18 18 18 18 17 17 17 18 18 18 18 18 18
18 18 18 18 18 18 17 17 17 17 17 17 17 17 17 17 17 17 17 17 17 17 17 17 17 17 17 17 17 17 18 17 17 17 17 17 17 17 18 18 18 18 18
18 18 18 18 18 18 17 17 17 17 17 17 17 17 17 17 17 17 17 17 17 17 17 17 17 17 17 17 17 17 17 17 17 17 17 17 17 17 17 17 17 18 18
18 18 18 18 18 18 17 17 17 17 17 17 17 17 17 17 17 17 17 17 17 17 17 17 17 17 17 17 17 17 17 17 17 17 17 17 17 17 17 17 17 17 17
18 18 18 18 18 18 17 17 17 17 17 17 17 17 17 17 17 17 17 17 17 17 17 17 17 17 17 17 17 17 17 17 17 17 17 17 17 17 17 17 17 17 17
18 18 18 18 18 18 17 17 17 17 17 17 17 17 17 17 17 17 17 17 17 16 17 17 17 17 17 17 17 17 17 17 17 17 17 17 17 17 17 17 17 17 17
18 18 18 18 18 18 17 17 17 17 17 17 17 17 17 17 17 17 16 16 16 16 16 17 17 17 17 17 17 16 16 16 16 16 16 16 16 16 16 16 16 16 16
19 18 18 18 18 18 17 17 17 17 17 17 17 17 17 16 16 16 16 16 16 16 16 16 16 16 16 16 16 16 16 16 16 16 16 16 16 16 16 16 16 16 16
19 19 18 18 18 18 17 17 17 17 17 17 17 17 17 17 16 16 16 16 16 16 16 16 16 16 16 16 16 16 16 16 16 16 16 16 16 16 16 16 16 16 16
19 19 19 18 18 18 18 17 17 17 17 17 17 17 17 17 17 16 16 16 16 16 16 16 16 16 16 16 16 16 16 16 16 16 16 16 16 16 16 16 16 16 16
19 19 19 19 18 18 18 17 17 17 17 17 17 17 17 17 17 16 16 16 16 16 16 16 16 16 16 16 16 16 16 15 15 16 16 16 16 15 15 15 15 15 16
20 19 19 19 18 18 18 18 18 17 17 17 17 17 17 17 17 17 16 16 16 16 16 16 16 16 16 16 16 16 15 15 15 15 15 15 15 15 15 15 15 15 15
20 19 19 19 18 18 18 18 18 17 17 17 17 17 17 17 17 17 16 16 16 16 16 16 16 16 16 16 16 15 15 15 15 15 15 15 15 15 15 15 15 15 15
20 20 19 19 19 18 18 18 18 18 17 17 17 17 17 17 17 17 16 16 16 16 16 16 15 15 15 15 15 15 15 15 15 15 15 15 15 15 15 15 15 15 15
20 20 19 19 19 18 18 18 18 17 17 17 17 17 17 17 17 16 16 16 16 16 16 16 15 15 15 15 15 15 15 15 15 15 15 15 15 15 15 15 15 15 15
21 20 19 19 19 18 18 18 18 17 17 17 17 17 17 16 16 16 16 16 16 16 16 15 15 15 15 15 15 15 15 15 14 14 14 14 14 14 14 14 14 14 15
20 20 19 19 19 18 18 18 17 17 17 17 17 16 16 16 16 16 16 16 16 15 15 15 15 15 15 15 15 14 14 14 14 14 14 14 14 14 14 14 14 14 14
20 20 20 19 19 18 18 18 17 17 17 17 16 16 16 16 16 16 16 15 15 15 15 15 15 15 15 15 15 15 15 14 15 15 14 14 14 14 14 14 14 14 14
20 20 20 19 19 18 18 17 17 17 16 16 16 16 16 16 16 15 15 15 15 15 15 15 15 14 14 14 14 14 14 14 14 14 14 14 14 14 14 14 14 14 14
20 20 20 19 18 18 18 17 17 17 16 16 16 16 16 16 16 15 15 15 15 15 15 14 14 14 14 14 14 14 14 14 14 14 14 14 14 14 14 14 14 13 13
20 20 19 19 18 18 18 17 17 17 16 16 16 16 16 16 15 15 15 15 15 15 15 14 14 14 14 14 14 14 14 14 14 14 14 14 14 14 14 13 13 13 13
19 19 19 19 18 18 18 17 17 17 16 16 16 16 16 16 15 15 15 15 15 15 14 14 14 14 14 14 14 14 14 14 14 14 13 14 14 14 13 13 13 13 13
19 19 19 19 18 18 17 17 17 17 16 16 16 16 16 16 15 15 15 15 15 14 14 14 14 14 14 14 14 13 14 14 14 14 13 13 13 13 13 13 13 13 13
Wind_Speed
5 8 9 9 9 9 9 9 9 9 9 9 10 10 10 9 9 9 8 8 9 9 8 8 8 8 8 8 8 8 8 7 7 8 7 7 7 7 6 5 5 6 8
7 10 10 10 10 9 9 9 9 9 9 9 10 10 10 9 10 10 9 8 8 8 8 7 7 8 8 8 8 8 7 7 7 6 6 6 6 6 6 6 6 7 8
8 10 11 11 11 10 9 9 10 10 10 10 10 10 10 10 11 11 10 9 9 9 8 8 8 8 8 8 7 6 6 5 4 4 4 4 5 6 7 7 8 7 7
9 11 11 11 10 10 10 10 10 10 10 10 10 10 10 11 11 11 11 10 10 10 10 10 8 8 8 8 8 6 5 5 4 3 3 4 6 8 8 8 7 6 6
10 12 12 11 10 10 10 10 10 10 10 10 10 11 11 11 11 11 11 11 11 10 11 11 10 9 9 9 8 7 5 5 5 4 5 7 7 8 9 8 7 6 6
10 12 11 11 10 9 10 10 10 10 10 10 10 11 11 11 11 11 11 11 11 11 10 11 10 9 9 9 9 8 6 5 5 5 6 7 7 8 8 8 7 6 6
10 11 11 11 10 10 10 10 10 10 10 11 11 11 11 11 11 11 11 11 11 11 10 10 10 9 9 9 9 9 8 6 5 5 6 7 7 8 8 7 7 6 6
9 10 11 10 10 11 10 11 11 11 11 10 10 11 11 11 11 11 10 11 11 10 10 10 9 8 8 8 8 8 9 7 6 6 6 7 9 9 8 7 7 7 7
8 8 10 10 10 11 11 11 10 10 10 9 9 9 9 10 11 11 10 10 10 9 9 8 8 8 7 7 7 7 8 8 6 5 7 9 10 9 8 8 8 8 8
6 7 8 10 10 10 9 10 9 8 8 7 7 7 7 8 10 10 10 9 9 8 8 7 7 7 6 6 5 6 6 6 6 6 8 10 11 10 8 8 8 8 8
6 5 7 7 8 8 9 9 8 7 6 6 5 5 5 6 7 8 9 9 8 7 7 6 5 5 5 4 4 4 4 4 7 7 9 11 11 10 9 9 8 8 8
6 5 6 6 6 6 6 7 6 5 5 5 4 4 4 5 7 8 9 7 6 5 4 3 3 3 2 2 3 3 4 6 7 8 10 11 10 10 10 9 8 8 8
6 5 5 6 6 5 3 4 3 3 3 2 2 4 5 6 6 6 6 5 4 3 2 2 2 2 3 4 4 4 6 7 8 9 10 11 11 11 10 10 9 8 7
7 5 4 5 6 5 4 3 2 2 1 1 3 5 4 2 2 3 3 4 3 2 2 2 1 3 4 5 5 5 6 7 8 8 9 11 10 10 10 10 9 8 8
7 6 5 5 5 5 3 1 3 2 2 3 3 4 5 2 2 3 2 3 3 3 3 3 3 4 5 5 5 5 6 7 7 8 8 10 9 9 9 9 9 9 8
8 7 5 5 5 5 4 3 3 2 2 3 2 4 5 4 3 3 3 3 3 3 4 3 4 5 4 4 4 5 6 6 6 8 8 8 9 9 8 9 8 8 8
7 7 5 5 5 4 4 3 3 2 3 2 2 4 5 5 5 4 4 3 2 4 5 4 5 4 3 4 4 4 4 4 5 6 7 7 7 8 8 7 8 7 7
7 8 7 4 5 5 4 3 2 3 3 3 4 5 5 6 7 5 3 2 4 4 3 3 3 3 3 3 3 3 3 3 4 4 5 6 7 6 6 7 7 7 6
6 7 8 6 5 5 4 4 3 3 3 4 5 5 6 6 7 5 3 2 4 3 3 3 3 3 3 3 1 1 2 2 2 3 3 4 6 7 6 6 6 6 5
6 6 8 6 5 5 3 3 3 3 3 3 4 4 5 5 6 4 2 4 4 3 3 3 3 3 2 1 1 2 1 1 1 2 2 2 4 6 6 6 6 4 4
5 6 7 7 5 5 3 2 2 2 2 2 2 4 3 4 5 4 3 4 3 3 3 3 3 2 1 1 2 1 1 1 1 1 1 1 2 4 5 5 5 4 4
4 4 6 6 6 6 3 2 2 3 2 2 2 2 3 4 4 3 3 3 3 3 3 3 3 2 1 1 1 1 1 2 2 1 1 1 1 2 2 4 5 5 5
4 3 4 6 6 6 5 2 3 3 2 2 1 1 2 3 3 3 3 2 2 2 2 2 3 3 1 2 1 1 1 1 1 1 0 0 1 1 1 2 4 5 5
5 3 3 4 5 5 5 4 3 3 2 2 2 1 1 2 2 2 2 2 1 2 2 2 3 2 2 1 2 2 1 1 1 1 2 1 1 1 1 1 2 4 5
5 4 3 4 4 4 4 4 3 2 2 2 2 2 2 1 1 2 1 1 1 1 2 2 3 1 1 0 0 1 2 2 1 1 1 1 1 1 0 1 2 3 5
5 5 4 4 4 4 3 4 4 3 2 2 2 1 1 2 2 2 1 1 1 1 2 2 2 1 1 0 0 0 0 1 1 0 0 1 1 1 0 1 1 2 4
Wind_Direction
73 82 68 56 53 54 50 51 55 59 61 59 61 61 61 60 59 59 59 59 58 60 64 70 75 82 83 84 84 85 86 94 103 103 102 103 104 104 97 94 91 92 108
89 88 73 62 60 58 56 59 61 62 64 64 65 64 65 63 62 62 63 61 61 60 60 67 77 82 84 84 84 82 83 91 106 109 108 108 110 113 105 96 87 97 101
90 93 78 66 64 61 59 62 66 65 64 63 64 64 66 65 62 60 63 63 63 60 60 65 74 81 80 82 82 84 87 91 103 117 117 117 115 114 107 98 95 97 97
84 82 78 73 68 66 63 66 69 68 66 65 65 65 67 68 65 63 63 63 66 65 64 64 70 76 76 74 72 72 84 93 87 99 95 100 103 106 102 99 94 95 97
83 84 84 77 72 71 69 70 72 71 69 68 69 68 69 71 73 69 68 67 69 69 67 64 66 68 70 67 62 57 72 87 84 68 70 82 83 98 99 97 92 91 94
92 91 92 89 84 79 75 75 76 74 73 72 71 69 70 73 74 74 71 70 71 72 71 69 67 63 66 66 60 56 65 73 73 68 82 85 85 94 97 94 91 90 92
101 102 99 97 94 88 83 81 81 79 77 76 75 74 74 75 77 77 73 72 74 76 76 76 73 65 63 64 60 56 55 59 69 77 84 87 89 93 94 95 89 87 87
103 106 105 102 99 95 90 89 87 85 83 82 80 79 78 78 79 79 76 73 75 76 75 76 77 73 68 64 60 56 54 48 65 74 80 91 95 93 93 91 87 86 85
105 113 121 115 105 99 97 98 96 94 94 93 91 89 88 87 87 84 80 75 74 76 77 77 78 79 78 75 65 58 56 52 53 67 80 86 93 91 90 87 86 88 84
106 110 118 127 124 120 111 109 109 109 111 111 109 111 108 101 99 96 90 84 81 80 81 84 87 91 91 88 75 67 55 55 67 74 80 87 87 86 89 88 86 89 86
114 116 115 120 124 124 124 123 135 136 138 144 149 156 146 133 121 107 99 100 95 91 89 93 100 107 105 104 95 72 66 76 71 75 80 88 87 85 86 88 87 89 89
124 119 119 117 118 114 110 132 150 147 156 168 163 147 135 103 97 104 113 115 115 113 111 117 126 121 123 121 107 94 82 79 74 77 82 86 84 83 83 83 86 89 87
112 103 118 123 116 106 104 117 116 115 131 145 119 112 107 107 120 126 138 143 150 150 128 116 159 149 101 84 78 81 79 77 74 72 81 81 82 83 83 83 83 84 82
119 116 107 110 115 115 115 117 119 112 108 87 77 89 93 92 99 106 117 125 123 91 76 75 54 74 83 88 83 80 81 82 82 81 83 82 82 84 83 82 81 81 81
126 123 109 106 105 110 107 117 107 91 68 84 66 84 93 88 106 114 101 98 88 73 66 52 46 48 47 54 66 74 81 86 90 86 85 85 85 85 83 81 78 77 79
131 126 122 119 115 121 121 108 100 111 102 82 58 79 89 85 94 95 88 80 83 72 71 77 66 59 46 53 53 59 74 85 97 100 99 92 87 85 85 84 80 79 79
130 125 119 121 117 108 98 90 97 80 78 79 62 63 83 82 76 80 74 76 82 72 63 65 68 65 64 60 49 53 66 74 88 99 108 107 99 90 90 90 86 82 80
130 127 123 114 106 98 95 91 76 72 60 60 59 41 54 73 77 76 70 67 82 79 78 72 69 68 65 64 55 44 54 63 74 90 101 114 115 107 100 98 93 88 82
126 130 129 121 114 104 99 98 70 73 62 59 59 48 37 45 73 76 64 64 72 69 63 59 60 63 69 68 74 80 60 61 62 87 92 102 117 120 118 111 106 101 90
124 127 126 121 120 110 96 96 84 66 53 58 60 59 42 46 65 75 79 71 65 63 59 61 62 53 58 67 57 70 83 101 70 82 93 103 116 122 121 125 126 116 112
133 140 134 135 130 113 98 100 102 95 74 65 61 66 51 60 67 70 67 66 61 70 70 75 78 60 43 64 63 43 6 53 86 98 97 97 103 116 122 130 137 130 122
125 136 140 132 121 114 110 112 119 110 96 86 59 71 54 61 62 77 84 76 76 75 69 70 76 51 7 40 86 85 44 11 2 353 60 104 107 102 117 126 124 122 119
132 130 118 124 124 128 127 102 91 86 90 79 72 60 49 72 70 60 76 87 105 105 104 101 96 84 41 347 22 77 112 195 301 322 334 75 71 76 85 93 104 113 116
138 136 123 115 121 124 128 119 121 128 133 148 145 148 109 86 88 78 78 75 86 96 109 117 98 91 92 8 349 0 10 136 141 315 321 13 69 82 78 62 98 111 109
129 122 112 103 103 109 121 134 140 138 155 152 145 144 137 132 121 106 110 125 108 119 129 107 103 100 96 100 8 347 345 350 9 141 264 303 331 342 82 126 110 103 110
133 124 115 110 99 100 118 146 148 149 155 150 151 157 163 167 173 160 150 166 180 148 141 140 145 150 176 179 138 268 281 315 299 301 176 261 281 271 261 90 114 118 118
Height
1506 1504 1503 1502 1501 1501 1501 1501 1501 1501 1501 1501 1502 1502 1502 1502 1502 1503 1503 1504 1504 1505 1505 1506 1507 1507 1508 1509 1510 1511 1512 1513 1514 1516 1517 1518 1519 1520 1522 1523 1523 1524 1525
1506 1505 1504 1503 1502 1502 1502 1502 1502 1502 1502 1503 1503 1503 1503 1503 1503 1504 1504 1505 1505 1506 1506 1507 1508 1508 1508 1509 1510 1511 1512 1513 1514 1516 1517 1519 1520 1521 1522 1523 1524 1525 1526
1507 1505 1504 1503 1503 1503 1503 1503 1503 1503 1503 1504 1504 1504 1504 1504 1504 1505 1505 1505 1506 1506 1507 1507 1508 1508 1509 1509 1510 1511 1512 1513 1515 1516 1518 1519 1520 1521 1522 1523 1524 1525 1526
1508 1506 1505 1505 1504 1504 1504 1504 1504 1504 1504 1505 1505 1505 1505 1505 1505 1505 1506 1506 1507 1507 1508 1508 1508 1509 1509 1509 1510 1510 1511 1513 1515 1516 1518 1519 1520 1521 1522 1523 1524 1525 1526
1508 1507 1507 1506 1505 1505 1505 1505 1505 1506 1506 1506 1506 1506 1506 1506 1506 1507 1507 1508 1508 1508 1509 1509 1510 1510 1509 1510 1509 1508 1508 1511 1514 1516 1518 1519 1520 1522 1522 1523 1524 1525 1526
1509 1508 1508 1507 1507 1507 1507 1507 1507 1507 1507 1507 1507 1507 1507 1507 1507 1508 1508 1509 1509 1509 1510 1510 1510 1511 1511 1511 1510 1508 1508 1511 1515 1517 1518 1520 1521 1522 1523 1523 1524 1525 1526
1510 1510 1509 1509 1508 1508 1508 1508 1508 1508 1508 1508 1508 1508 1509 1509 1509 1509 1510 1510 1510 1510 1511 1511 1511 1511 1512 1512 1512 1512 1512 1514 1516 1517 1519 1520 1521 1522 1522 1523 1524 1525 1525
1512 1511 1511 1510 1510 1509 1509 1509 1510 1510 1510 1510 1510 1510 1510 1510 1510 1511 1511 1511 1512 1512 1512 1512 1512 1513 1513 1514 1514 1514 1515 1516 1517 1518 1519 1520 1521 1522 1523 1523 1524 1525 1525
1513 1513 1512 1512 1511 1511 1511 1511 1511 1511 1511 1512 1512 1512 1512 1512 1512 1512 1513 1513 1513 1513 1513 1514 1514 1514 1515 1515 1516 1516 1516 1517 1518 1519 1520 1521 1522 1522 1523 1523 1524 1525 1525
1515 1515 1514 1513 1513 1513 1513 1513 1513 1513 1513 1514 1514 1514 1514 1514 1514 1514 1514 1515 1515 1515 1515 1515 1516 1516 1516 1517 1518 1518 1518 1519 1519 1520 1521 1521 1522 1522 1523 1523 1524 1525 1526
1516 1516 1516 1516 1515 1515 1515 1515 1515 1515 1515 1515 1515 1516 1516 1516 1516 1516 1516 1516 1516 1517 1517 1517 1517 1518 1518 1519 1520 1520 1520 1520 1521 1521 1522 1523 1523 1523 1523 1524 1524 1525 1526
1517 1517 1517 1518 1517 1517 1517 1517 1517 1517 1517 1517 1517 1517 1518 1518 1518 1518 1518 1518 1518 1519 1519 1519 1519 1519 1520 1520 1521 1521 1521 1522 1522 1523 1523 1523 1523 1524 1524 1524 1525 1525 1526
1517 1518 1518 1518 1519 1519 1519 1519 1519 1519 1519 1519 1519 1519 1519 1519 1519 1519 1519 1519 1520 1520 1520 1521 1521 1521 1521 1522 1522 1523 1523 1523 1523 1524 1524 1524 1524 1524 1524 1525 1525 1525 1526
1518 1519 1519 1519 1520 1520 1520 1520 1520 1520 1520 1520 1520 1520 1520 1519 1520 1520 1520 1521 1521 1521 1522 1522 1522 1522 1523 1523 1524 1524 1524 1524 1525 1525 1525 1525 1525 1525 1525 1525 1526 1526 1526
1518 1519 1519 1520 1520 1520 1521 1521 1521 1521 1521 1521 1521 1521 1520 1520 1520 1520 1521 1522 1522 1523 1523 1523 1523 1523 1524 1524 1525 1525 1525 1525 1525 1525 1526 1526 1526 1526 1526 1526 1526 1526 1526
1518 1519 1520 1520 1521 1521 1522 1522 1522 1522 1522 1522 1522 1522 1521 1521 1521 1521 1522 1522 1523 1523 1524 1524 1524 1524 1524 1525 1526 1526 1526 1526 1526 1526 1526 1526 1526 1527 1527 1527 1527 1527 1527
1517 1519 1520 1521 1521 1522 1522 1522 1523 1523 1523 1523 1523 1523 1522 1522 1522 1522 1522 1523 1524 1524 1524 1525 1525 1525 1525 1526 1526 1527 1527 1527 1527 1527 1527 1527 1527 1527 1527 1527 1527 1527 1527
1517 1518 1519 1521 1522 1522 1523 1523 1523 1524 1523 1523 1523 1523 1523 1523 1522 1523 1523 1524 1524 1525 1525 1525 1525 1526 1526 1526 1527 1527 1527 1528 1528 1528 1528 1528 1527 1527 1527 1527 1527 1527 1527
1517 1518 1519 1520 1521 1522 1523 1523 1523 1524 1524 1524 1524 1524 1524 1524 1524 1524 1524 1524 1524 1525 1525 1526 1526 1526 1526 1526 1527 1527 1528 1528 1528 1528 1528 1528 1528 1528 1528 1528 1527 1527 1527
1517 1518 1519 1520 1521 1522 1523 1523 1524 1524 1524 1524 1524 1524 1524 1524 1524 1524 1525 1525 1525 1525 1525 1525 1526 1526 1526 1527 1527 1527 1528 1528 1528 1529 1529 1529 1529 1528 1528 1528 1527 1527 1527
1516 1517 1518 1519 1521 1521 1522 1523 1523 1524 1524 1524 1524 1524 1524 1524 1524 1524 1524 1525 1525 1525 1525 1526 1525 1526 1527 1527 1527 1527 1528 1528 1528 1529 1529 1529 1529 1528 1528 1527 1527 1527 1526
1515 1517 1518 1519 1520 1521 1522 1522 1523 1523 1523 1524 1524 1524 1524 1524 1524 1524 1524 1524 1525 1525 1525 1525 1525 1526 1526 1527 1527 1527 1528 1530 1528 1529 1529 1529 1529 1528 1528 1527 1527 1526 1525
1514 1515 1517 1518 1519 1520 1521 1522 1522 1522 1523 1523 1524 1524 1524 1524 1524 1524 1525 1525 1524 1525 1525 1525 1525 1525 1526 1526 1527 1528 1528 1528 1528 1529 1528 1528 1528 1528 1527 1527 1526 1526 1525
1513 1514 1516 1517 1518 1519 1520 1521 1521 1522 1522 1523 1523 1524 1524 1524 1524 1524 1524 1524 1524 1524 1524 1525 1525 1525 1525 1525 1526 1527 1527 1527 1527 1527 1528 1528 1528 1527 1527 1527 1526 1525 1524
1511 1513 1515 1516 1517 1518 1519 1519 1520 1521 1522 1522 1523 1523 1523 1523 1523 1523 1523 1523 1523 1523 1524 1524 1524 1524 1525 1525 1525 1526 1526 1526 1526 1526 1526 1527 1527 1526 1526 1526 1525 1524 1523
1509 1511 1513 1515 1516 1517 1518 1518 1519 1520 1521 1521 1522 1522 1522 1522 1522 1522 1522 1522 1522 1523 1523 1523 1523 1523 1524 1524 1524 1525 1525 1525 1525 1525 1525 1525 1525 1525 1525 1524 1524 1523 1522